Location: Camerons Lookout
(40.9833°S, 175.9333°E)
Time: 20:51:11
(UTC+00:00)

CSL-04 Rocket - Pass Details

Date: 14 January 2026
Orbit: 804 x 858 km, 98.7° (Epoch: 18 February)

Event Time Altitude Azimuth Distance (km) Brightness Sun altitude
Rises 09:18:20 0° 170° (S) 3,463 7.4 -14.1°
Reaches altitude 10° 09:20:44 10° 172° (S) 2,523 6.7 -14.4°
Maximum altitude 09:26:19 67° 253° (WSW) 937 4.1 -15.2°
Drops below altitude 10° 09:31:50 10° 334° (NNW) 2,495 5.9 -15.9°
Sets 09:34:12 0° 337° (NNW) 3,421 6.6 -16.2°
